sat.trackr.live / text

‹ back to catalog

FLOCK 4G-2

NORAD 62661 · 2025-009BE

PAYLOAD ACTIVE UNKNOWN

§ Identity

Operator
Country
US
Launch date
2025-01-14
Launch site
AFWTR
Launch vehicle
Mass (kg)
RCS (m²)

Purposes: earth_obs

External: N2YO · Heavens-Above · Gunter

§ Orbital elements

Epoch: 2026-05-25T02:54:14.412096Z

Period
94.16 min
Inclination
97.4007°
Eccentricity
0.0005138
Mean motion
15.29329171 rev/d
Perigee alt
474.3 km
Apogee alt
481.3 km
Semi-major
6,856.0 km
B*
3.4894e-4
RAAN
227.2428°
Arg perigee
62.9345°
Mean anomaly
297.2419°
Rev number
13,300

§ Raw data

FLOCK 4G-21 62661U 25009BE  26145.12100014  .00009857  00000+0  34894-3 0  99932 62661  97.4007 227.2428 0005138  62.9345 297.2419 15.29329171133004

JSON: /api/v1/satellites/62661 · /tle

For live sub-satellite position, see the globe view (requires WebGL).

§ Visibility from observer

Set your observer location to see the next 7 days of passes ≥ 10°. The values pass through the URL so the page stays shareable.

No JS? Fill the form by hand. The geolocation button needs JavaScript.